• In Austria
  • List of Countries
  • For 7 days
  • Water Temperature
  • Satellite Maps
  • Weather Map
  • News
  • Weather Widgets
  • user-avatar
    Login

    Hourly Weather Kyrdzhali

    Today, 22 October, Monday

    Time Temperature Precipitation Wind Pressure Humidity
    00:00 +13°C° 0 mm 2 mps 730 mmHg 84%
    01:00 +12°C° 0 mm 2 mps 730 mmHg 86%
    02:00 +12°C° 0 mm 2 mps 730 mmHg 88%
    03:00 +12°C° 0 mm 2 mps 730 mmHg 89%
    04:00 +12°C° 0 mm 2 mps 730 mmHg 89%
    05:00 +12°C° 0 mm 2 mps 730 mmHg 90%
    06:00 +12°C° 0 mm 2 mps 730 mmHg 87%
    07:00 +11°C° 0 mm 3 mps 730 mmHg 84%
    08:00 +12°C° 0 mm 3 mps 731 mmHg 82%
    09:00 +13°C° 0 mm 3 mps 731 mmHg 74%
    10:00 +14°C° 0 mm 3 mps 731 mmHg 66%
    11:00 +15°C° 0 mm 4 mps 731 mmHg 59%
    12:00 +17°C° 0 mm 4 mps 730 mmHg 55%
    13:00 +17°C° 0 mm 4 mps 730 mmHg 52%
    14:00 +18°C° 0 mm 4 mps 730 mmHg 49%
    15:00 +17°C° 0 mm 3 mps 730 mmHg 51%
    16:00 +17°C° 0 mm 3 mps 729 mmHg 53%
    17:00 +16°C° 0 mm 3 mps 729 mmHg 55%
    18:00 +14°C° 0 mm 3 mps 729 mmHg 59%
    19:00 +13°C° 0 mm 3 mps 729 mmHg 63%
    20:00 +13°C° 0 mm 2 mps 729 mmHg 67%
    21:00 +12°C° 0 mm 2 mps 729 mmHg 70%
    22:00 +12°C° 0 mm 2 mps 729 mmHg 72%
    23:00 +10°C° 0 mm 2 mps 729 mmHg 75%

    Tomorrow, 23 October, Tuesday

    Time Temperature Precipitation Wind Pressure Humidity
    00:00 +10°C° 0 mm 2 mps 729 mmHg 76%
    01:00 +10°C° 0 mm 2 mps 729 mmHg 78%
    02:00 +9°C° 0 mm 2 mps 729 mmHg 79%
    03:00 +9°C° 0 mm 2 mps 729 mmHg 80%
    04:00 +9°C° 0 mm 2 mps 729 mmHg 80%
    05:00 +9°C° 0 mm 2 mps 729 mmHg 81%
    06:00 +9°C° 0 mm 2 mps 729 mmHg 77%
    07:00 +10°C° 0 mm 2 mps 729 mmHg 73%
    08:00 +12°C° 0 mm 2 mps 730 mmHg 69%
    09:00 +12°C° 0 mm 3 mps 730 mmHg 63%
    10:00 +14°C° 0 mm 3 mps 730 mmHg 56%
    11:00 +16°C° 0 mm 3 mps 730 mmHg 49%
    12:00 +17°C° 0 mm 3 mps 729 mmHg 47%
    13:00 +18°C° 0 mm 3 mps 729 mmHg 44%
    14:00 +18°C° 0 mm 3 mps 728 mmHg 42%
    15:00 +18°C° 0 mm 2 mps 728 mmHg 45%
    16:00 +17°C° 0 mm 2 mps 727 mmHg 48%
    17:00 +16°C° 0 mm 1 mps 727 mmHg 50%
    18:00 +15°C° 0 mm 1 mps 727 mmHg 53%
    19:00 +14°C° 0 mm 1 mps 727 mmHg 56%
    20:00 +13°C° 0 mm 1 mps 727 mmHg 59%
    21:00 +12°C° 0 mm 1 mps 727 mmHg 60%
    22:00 +12°C° 0 mm 1 mps 727 mmHg 62%
    23:00 +12°C° 0 mm 1 mps 726 mmHg 63%

    Day after tomorrow, 24 October, Wednesday

    Time Temperature Precipitation Wind Pressure Humidity
    00:00 +11°C° 0 mm 1 mps 726 mmHg 64%
    01:00 +11°C° 0 mm 1 mps 726 mmHg 65%
    02:00 +11°C° 0 mm 1 mps 725 mmHg 66%
    03:00 +11°C° 0 mm 1 mps 725 mmHg 66%
    04:00 +10°C° 0 mm 1 mps 724 mmHg 67%
    05:00 +10°C° 0 mm 1 mps 724 mmHg 67%
    06:00 +11°C° 0 mm 1 mps 724 mmHg 64%
    07:00 +12°C° 0 mm 1 mps 724 mmHg 62%
    08:00 +12°C° 0 mm 1 mps 723 mmHg 59%
    09:00 +14°C° 0 mm 2 mps 723 mmHg 52%
    10:00 +16°C° 0 mm 2 mps 723 mmHg 46%
    11:00 +18°C° 0 mm 3 mps 722 mmHg 39%
    12:00 +19°C° 0 mm 3 mps 722 mmHg 38%
    13:00 +20°C° 0 mm 4 mps 721 mmHg 37%
    14:00 +21°C° 0 mm 4 mps 720 mmHg 36%
    15:00 +20°C° 0 mm 4 mps 720 mmHg 40%
    16:00 +18°C° 0 mm 3 mps 720 mmHg 43%
    17:00 +17°C° 0 mm 3 mps 719 mmHg 47%
    18:00 +16°C° 0 mm 3 mps 719 mmHg 51%
    19:00 +14°C° 0 mm 3 mps 719 mmHg 54%
    20:00 +13°C° 0 mm 3 mps 719 mmHg 57%
    21:00 +12°C° 0.1 mm 4 mps 720 mmHg 58%
    22:00 +12°C° 0.1 mm 5 mps 720 mmHg 59%
    23:00 +12°C° 0.1 mm 5 mps 721 mmHg 60%

    25 October, Thursday

    Time Temperature Precipitation Wind Pressure Humidity
    00:00 +9°C° 0 mm 5 mps 721 mmHg 57%
    01:00 +8°C° 0 mm 5 mps 722 mmHg 55%
    02:00 +7°C° 0 mm 5 mps 722 mmHg 52%
    03:00 +6°C° 0 mm 5 mps 723 mmHg 52%
    04:00 +5°C° 0 mm 5 mps 723 mmHg 52%
    05:00 +5°C° 0 mm 5 mps 723 mmHg 52%
    06:00 +5°C° 0 mm 5 mps 724 mmHg 49%
    07:00 +5°C° 0 mm 5 mps 724 mmHg 46%
    08:00 +5°C° 0 mm 5 mps 725 mmHg 43%
    09:00 +7°C° 0 mm 5 mps 725 mmHg 37%
    10:00 +8°C° 0 mm 6 mps 726 mmHg 30%
    11:00 +10°C° 0 mm 6 mps 726 mmHg 24%
    12:00 +12°C° 0 mm 5 mps 726 mmHg 22%
    13:00 +12°C° 0 mm 5 mps 726 mmHg 20%
    14:00 +13°C° 0 mm 5 mps 725 mmHg 19%
    15:00 +13°C° 0 mm 4 mps 725 mmHg 22%
    16:00 +12°C° 0 mm 3 mps 725 mmHg 25%
    17:00 +12°C° 0 mm 2 mps 725 mmHg 28%
    18:00 +10°C° 0 mm 2 mps 726 mmHg 31%
    19:00 +10°C° 0 mm 2 mps 726 mmHg 34%
    20:00 +9°C° 0 mm 2 mps 726 mmHg 37%
    21:00 +9°C° 0 mm 2 mps 726 mmHg 40%
    22:00 +8°C° 0 mm 2 mps 726 mmHg 43%
    23:00 +8°C° 0 mm 2 mps 726 mmHg 46%

    26 October, Friday

    Time Temperature Precipitation Wind Pressure Humidity
    00:00 +8°C° 0 mm 2 mps 726 mmHg 49%
    01:00 +9°C° 0 mm 3 mps 726 mmHg 52%
    02:00 +9°C° 0 mm 3 mps 726 mmHg 54%
    03:00 +9°C° 0 mm 2 mps 726 mmHg 55%
    04:00 +9°C° 0 mm 2 mps 726 mmHg 56%
    05:00 +9°C° 0 mm 2 mps 726 mmHg 58%
    06:00 +9°C° 0 mm 2 mps 726 mmHg 56%
    07:00 +10°C° 0 mm 2 mps 727 mmHg 55%
    08:00 +12°C° 0 mm 2 mps 727 mmHg 54%
    09:00 +14°C° 0 mm 2 mps 728 mmHg 48%
    10:00 +16°C° 0 mm 2 mps 728 mmHg 42%
    11:00 +19°C° 0 mm 2 mps 728 mmHg 37%
    12:00 +19°C° 0 mm 2 mps 728 mmHg 36%
    13:00 +20°C° 0 mm 2 mps 728 mmHg 35%
    14:00 +20°C° 0 mm 2 mps 728 mmHg 34%
    15:00 +19°C° 0 mm 2 mps 728 mmHg 39%
    16:00 +18°C° 0 mm 2 mps 728 mmHg 43%
    17:00 +17°C° 0 mm 2 mps 728 mmHg 48%
    18:00 +15°C° 0 mm 2 mps 728 mmHg 53%
    19:00 +14°C° 0 mm 2 mps 728 mmHg 59%
    20:00 +13°C° 0 mm 2 mps 728 mmHg 64%
    21:00 +13°C° 0 mm 2 mps 728 mmHg 65%
    22:00 +12°C° 0 mm 2 mps 729 mmHg 67%
    23:00 +12°C° 0 mm 2 mps 729 mmHg 69%

    27 October, Saturday

    Time Temperature Precipitation Wind Pressure Humidity
    00:00 +12°C° 0 mm 2 mps 729 mmHg 70%
    01:00 +12°C° 0 mm 2 mps 729 mmHg 71%
    02:00 +10°C° 0 mm 2 mps 728 mmHg 72%
    03:00 +10°C° 0 mm 2 mps 728 mmHg 73%
    04:00 +10°C° 0 mm 2 mps 728 mmHg 74%
    05:00 +10°C° 0 mm 2 mps 728 mmHg 75%
    06:00 +12°C° 0 mm 2 mps 728 mmHg 73%
    07:00 +12°C° 0 mm 2 mps 728 mmHg 72%
    08:00 +13°C° 0 mm 2 mps 729 mmHg 71%
    09:00 +14°C° 0 mm 3 mps 729 mmHg 65%
    10:00 +17°C° 0 mm 4 mps 729 mmHg 58%
    11:00 +20°C° 0 mm 4 mps 729 mmHg 52%
    12:00 +20°C° 0 mm 5 mps 729 mmHg 52%
    13:00 +21°C° 0 mm 5 mps 728 mmHg 52%
    14:00 +22°C° 0 mm 6 mps 728 mmHg 51%
    15:00 +20°C° 0 mm 6 mps 728 mmHg 58%
    16:00 +19°C° 0 mm 5 mps 727 mmHg 64%
    17:00 +17°C° 0 mm 5 mps 727 mmHg 71%
    18:00 +16°C° 0 mm 5 mps 727 mmHg 75%
    19:00 +16°C° 0 mm 5 mps 727 mmHg 79%
    20:00 +15°C° 0 mm 5 mps 727 mmHg 83%
    21:00 +15°C° 0 mm 5 mps 727 mmHg 83%
    22:00 +15°C° 0 mm 5 mps 727 mmHg 83%
    23:00 +15°C° 0 mm 5 mps 727 mmHg 83%

    28 October, Sunday

    Time Temperature Precipitation Wind Pressure Humidity
    00:00 +15°C° 0 mm 5 mps 728 mmHg 83%
    01:00 +14°C° 0 mm 4 mps 728 mmHg 83%
    02:00 +14°C° 0 mm 4 mps 728 mmHg 84%
    03:00 +14°C° 0 mm 4 mps 727 mmHg 84%
    04:00 +14°C° 0 mm 4 mps 727 mmHg 85%
    05:00 +14°C° 0 mm 4 mps 727 mmHg 86%
    06:00 +14°C° 0 mm 4 mps 728 mmHg 84%
    07:00 +15°C° 0 mm 4 mps 728 mmHg 83%
    08:00 +15°C° 0 mm 4 mps 728 mmHg 81%
    09:00 +17°C° 0 mm 5 mps 728 mmHg 75%
    10:00 +19°C° 0 mm 5 mps 729 mmHg 68%
    11:00 +21°C° 0 mm 6 mps 729 mmHg 62%
    12:00 +21°C° 0 mm 6 mps 729 mmHg 60%
    13:00 +21°C° 0 mm 6 mps 728 mmHg 58%
    14:00 +22°C° 0 mm 6 mps 728 mmHg 57%
    15:00 +21°C° 0 mm 6 mps 728 mmHg 62%
    16:00 +19°C° 0 mm 5 mps 728 mmHg 66%
    17:00 +17°C° 0 mm 5 mps 728 mmHg 71%
    18:00 +18°C° 0 mm 4 mps 728 mmHg 75%
    19:00 +17°C° 0 mm 4 mps 728 mmHg 78%
    20:00 +15°C° 0 mm 4 mps 728 mmHg 81%
    21:00 +15°C° 0 mm 4 mps 728 mmHg 82%
    22:00 +15°C° 0 mm 4 mps 728 mmHg 82%
    23:00 +15°C° 0 mm 4 mps 728 mmHg 83%
    Show more